Wind_Speed
16 15 15 15 15 15 15 14 13 13 14 14 14 14 14 14 14 14 14 14 14 14 14 14 15 15 16 16 16 16 17 17 17 17 17 16 16 16 16 16 17 18 18
15 14 14 14 14 14 14 14 14 15 15 15 15 15 14 14 15 14 14 14 14 14 14 14 15 15 15 16 15 15 16 16 17 17 17 16 17 17 17 18 18 19 19
14 13 13 13 14 14 14 14 14 15 15 15 15 15 15 15 15 15 14 15 14 14 14 14 14 14 14 14 14 14 15 16 17 17 18 18 18 18 18 18 18 19 20
14 14 13 13 13 13 13 14 15 15 15 15 14 14 14 14 15 16 16 15 15 15 15 14 14 14 14 14 14 14 15 16 16 17 18 18 19 19 19 19 19 20 21
13 13 12 12 12 12 13 14 14 14 14 14 14 14 14 14 15 15 15 16 15 15 15 14 14 14 14 14 14 14 15 15 16 17 18 19 19 20 20 19 20 20 21
12 12 11 11 11 12 12 13 14 13 13 14 14 14 13 14 15 15 16 16 16 16 15 14 13 13 13 13 14 14 15 15 16 16 17 18 19 20 20 20 20 20 21
10 11 11 11 11 11 12 12 12 13 13 14 13 13 13 14 15 15 15 16 16 15 14 13 13 13 13 13 13 13 14 15 16 16 16 17 18 18 18 19 18 19 20
9 9 10 10 11 12 12 12 12 12 12 12 12 12 12 13 13 14 14 14 14 13 13 13 13 13 13 12 12 13 13 14 15 15 16 16 17 17 17 18 19 19 20
8 9 10 10 11 11 11 11 10 10 10 11 11 11 12 12 13 13 13 13 12 12 12 12 12 12 13 13 13 13 14 14 14 15 15 16 16 17 17 17 18 19 20
8 9 9 9 10 10 9 9 10 10 10 11 11 12 12 12 12 12 12 11 11 11 11 10 10 11 11 12 13 13 14 14 13 13 14 15 16 17 17 18 18 19 20
8 8 7 8 8 8 8 9 9 10 10 11 11 11 11 12 12 12 11 11 10 10 9 10 10 10 10 10 11 12 12 12 12 12 13 14 15 16 17 18 19 19 19
7 8 7 7 7 7 7 8 8 9 9 9 9 10 10 11 11 11 11 10 9 8 9 9 9 9 9 9 10 11 11 12 12 13 13 13 15 16 17 17 18 18 18
7 7 7 7 6 6 7 7 7 7 7 8 8 9 9 10 9 9 9 9 8 9 9 9 9 9 9 10 10 10 11 11 12 12 13 14 15 15 16 17 17 18 19
7 7 7 7 7 7 7 7 7 8 8 8 8 8 8 9 8 8 8 8 8 8 9 9 9 10 10 10 10 11 12 12 12 13 13 14 15 15 16 16 17 17 18
7 7 6 6 7 7 7 7 8 7 7 7 7 8 8 8 7 7 7 7 8 9 9 9 9 9 10 10 11 12 12 12 13 13 14 15 15 15 16 16 16 17 18
6 6 7 7 7 8 8 7 7 7 7 8 8 7 6 7 7 7 7 7 8 8 9 9 9 10 11 12 12 13 13 13 13 14 15 15 15 15 15 16 18 19 20
7 6 6 7 7 7 8 7 6 6 7 8 6 5 6 6 6 7 7 8 8 9 9 10 10 11 12 12 13 14 13 14 14 15 15 15 15 16 16 17 18 19 20
7 7 7 7 7 7 7 7 7 6 7 7 6 6 6 6 7 8 8 8 8 9 9 10 11 11 12 13 13 13 13 14 14 15 16 16 16 16 17 18 18 19 19
8 7 8 7 7 7 8 8 7 7 6 6 6 6 7 7 8 9 9 9 8 9 9 10 11 12 12 12 12 12 12 13 14 15 15 15 15 16 17 18 18 18 19
8 8 8 8 8 8 8 8 8 8 7 7 6 7 7 8 9 10 10 9 9 10 10 12 12 12 12 11 12 12 13 13 14 14 14 15 15 15 17 18 18 18 18
8 8 8 8 8 8 9 9 9 8 8 7 8 8 9 9 9 10 10 11 11 11 12 12 12 12 11 12 12 13 13 13 13 13 14 14 15 16 17 18 18 19 19
9 9 8 8 8 9 9 9 9 8 8 8 8 9 10 10 10 10 11 12 12 13 13 13 12 12 11 12 13 13 13 14 14 14 14 14 15 16 16 17 18 18 18
10 9 8 9 9 9 9 9 8 8 8 9 9 10 10 11 11 11 12 13 13 13 13 13 13 12 12 12 13 13 14 14 14 14 14 14 15 15 16 16 17 18 18
10 10 9 9 9 9 9 9 8 9 9 10 10 10 11 11 11 12 13 13 13 12 12 12 12 12 13 13 13 13 14 14 13 13 13 14 15 16 16 16 17 17 17
11 10 9 9 10 10 9 9 9 9 9 10 10 10 10 10 11 12 12 12 12 11 11 11 12 13 13 13 14 14 13 13 13 13 13 14 15 15 16 16 16 16 17
12 11 10 10 11 11 10 10 10 10 10 11 11 10 11 11 12 12 12 12 11 11 11 11 12 13 13 14 14 13 13 13 12 13 14 14 15 15 15 16 16 16 16
Wind_Direction
272 275 275 275 275 273 269 267 270 271 272 275 275 274 276 280 282 282 284 286 284 282 278 272 273 275 273 271 270 267 265 260 257 257 258 258 258 260 263 264 265 267 270
271 272 273 274 274 270 268 270 271 272 274 275 274 273 274 279 283 283 281 282 284 284 281 276 275 275 274 270 270 269 265 262 260 259 258 257 260 262 264 266 268 269 271
271 271 273 274 271 269 268 271 271 273 277 277 276 273 273 278 282 285 286 283 282 284 284 280 277 275 275 274 273 271 267 265 263 261 260 260 261 261 266 269 270 271 273
271 273 273 273 272 271 270 271 273 276 280 278 278 277 278 281 283 283 285 286 283 280 279 279 275 273 272 272 272 273 271 266 264 263 262 261 263 264 267 269 272 274 274
269 269 269 269 269 269 270 267 269 275 278 278 279 279 280 283 285 283 282 284 283 283 281 280 278 275 272 271 272 274 273 268 265 265 263 263 265 265 269 272 274 275 275
268 266 266 267 268 270 270 269 270 273 276 277 281 284 285 285 285 285 285 283 283 283 280 281 280 279 277 277 275 276 275 271 268 269 266 264 264 265 269 272 273 276 278
272 270 269 267 267 271 272 271 272 273 275 277 284 286 285 285 286 286 286 284 283 283 280 282 280 279 276 277 279 279 276 274 272 271 269 267 265 267 272 275 277 279 281
281 280 278 275 270 272 273 273 274 274 277 280 283 286 288 289 290 292 293 292 286 285 282 283 279 277 276 278 280 280 280 277 274 274 274 273 270 268 272 276 278 280 282
288 288 282 274 274 275 276 278 279 281 282 283 285 288 291 294 295 295 294 295 289 286 285 280 279 281 277 279 282 281 282 277 275 276 274 272 271 271 274 278 279 280 283
298 300 296 281 282 282 281 278 282 284 283 284 288 291 294 296 295 295 297 294 293 293 292 287 280 283 282 281 281 282 282 277 276 278 275 273 274 275 274 278 282 283 284
303 309 308 299 294 288 286 287 286 287 285 288 290 292 294 292 291 295 296 294 293 292 292 289 283 281 281 282 284 285 282 279 278 277 276 277 279 279 278 281 284 285 286
305 307 312 312 303 296 295 298 296 296 295 294 293 292 293 295 296 293 292 293 289 287 291 289 282 282 282 284 286 286 283 282 281 280 281 283 284 284 281 283 285 286 288
305 306 310 316 318 313 308 307 303 304 303 302 299 297 297 299 298 293 293 292 289 287 291 286 282 285 285 284 286 284 286 286 284 285 286 285 286 286 286 287 286 288 289
299 304 306 309 316 316 312 311 312 305 304 308 307 307 307 305 302 299 299 298 298 295 294 292 287 287 288 291 290 291 291 289 286 286 288 287 287 288 290 288 287 289 290
298 301 305 312 314 311 310 306 306 305 305 309 311 311 310 314 310 304 302 299 299 301 299 295 291 290 292 295 293 294 294 293 290 289 291 293 292 291 293 292 291 291 293
300 302 306 309 313 314 310 307 306 306 303 306 304 308 316 315 314 309 307 307 305 306 304 304 298 294 294 294 293 293 295 294 291 291 293 294 295 295 295 296 295 294 295
303 303 304 310 314 315 314 312 314 310 305 308 308 307 312 312 317 321 320 316 309 307 310 311 306 300 296 293 293 294 294 294 294 292 293 294 296 296 297 299 299 299 299
298 302 305 305 308 311 313 313 313 313 313 315 311 305 312 319 323 323 320 317 316 313 314 313 310 308 302 297 296 297 296 296 296 294 293 292 294 297 298 301 303 302 304
290 295 298 300 303 306 311 312 308 309 314 319 318 314 314 316 319 319 317 318 318 320 321 319 315 312 307 303 301 301 301 299 298 296 295 294 297 298 299 302 305 306 306
290 288 292 293 297 301 309 309 303 305 307 312 313 315 316 315 315 315 314 316 317 317 317 317 315 315 312 308 305 302 303 304 303 300 299 299 300 301 304 306 308 310 311
285 282 286 290 293 299 306 307 302 303 303 305 309 312 312 312 314 316 316 316 315 314 315 316 315 314 311 309 307 305 306 307 308 307 305 303 303 303 306 308 309 311 313
279 278 279 285 291 297 299 303 304 304 304 305 308 311 312 311 313 316 317 315 313 313 315 316 316 311 308 308 309 310 310 309 308 307 306 305 304 304 305 308 309 310 311
277 276 276 281 287 293 296 299 300 302 304 305 308 311 311 310 309 311 314 315 314 313 314 313 312 309 306 305 306 310 313 314 312 311 311 309 307 307 309 312 315 316 316
271 272 272 279 282 289 296 298 297 304 305 307 307 310 311 310 311 312 314 317 317 314 313 312 311 309 306 304 303 308 315 317 315 315 314 312 311 311 313 315 317 318 320
266 268 267 274 281 286 292 295 297 304 306 306 307 310 312 311 312 315 318 320 320 317 314 314 315 312 310 308 307 310 315 319 316 313 313 313 313 313 314 315 317 320 323
263 266 266 271 277 282 288 293 296 301 304 305 306 307 309 309 310 314 316 316 317 315 314 315 316 316 315 314 312 310 309 315 316 314 316 315 313 311 312 314 317 319 321
Height
5834 5834 5833 5833 5832 5832 5831 5831 5830 5830 5829 5829 5829 5828 5827 5826 5825 5824 5823 5822 5822 5821 5821 5820 5820 5820 5819 5819 5819 5819 5819 5820 5820 5821 5821 5821 5821 5822 5822 5823 5823 5823 5823
5830 5830 5830 5829 5829 5828 5828 5828 5827 5827 5826 5826 5825 5824 5824 5823 5822 5821 5820 5819 5819 5818 5817 5817 5816 5816 5816 5815 5815 5815 5815 5815 5816 5816 5817 5817 5818 5818 5818 5818 5819 5819 5819
5826 5826 5826 5826 5825 5825 5825 5824 5824 5823 5823 5822 5822 5821 5820 5819 5819 5818 5817 5816 5815 5814 5813 5813 5812 5812 5812 5812 5811 5811 5811 5811 5811 5812 5812 5813 5814 5814 5814 5814 5814 5814 5813
5823 5823 5823 5822 5822 5821 5821 5821 5820 5820 5819 5819 5818 5818 5817 5816 5816 5815 5814 5813 5812 5811 5810 5809 5808 5808 5808 5808 5807 5807 5806 5806 5807 5807 5807 5808 5808 5809 5809 5809 5809 5808 5808
5819 5819 5819 5819 5818 5818 5818 5817 5817 5816 5816 5815 5815 5814 5814 5813 5812 5811 5810 5809 5808 5807 5806 5805 5804 5804 5804 5804 5804 5803 5802 5802 5802 5802 5803 5803 5803 5803 5803 5803 5803 5803 5802
5816 5816 5816 5816 5815 5815 5814 5814 5814 5813 5813 5812 5811 5811 5810 5809 5808 5808 5807 5805 5804 5803 5802 5801 5800 5800 5800 5800 5799 5799 5798 5798 5798 5798 5798 5798 5798 5798 5798 5797 5797 5797 5796
5813 5813 5812 5812 5812 5812 5811 5811 5810 5810 5809 5809 5808 5807 5807 5806 5805 5804 5802 5801 5800 5799 5798 5797 5796 5796 5796 5796 5795 5795 5794 5794 5793 5793 5793 5792 5793 5793 5792 5792 5791 5791 5790
5810 5810 5809 5809 5809 5809 5809 5808 5808 5807 5806 5806 5805 5804 5803 5802 5801 5800 5798 5797 5796 5795 5794 5793 5793 5792 5792 5791 5791 5790 5790 5789 5789 5788 5788 5787 5787 5787 5787 5787 5786 5785 5784
5808 5807 5806 5806 5806 5806 5806 5805 5805 5804 5804 5803 5802 5801 5800 5799 5798 5796 5795 5793 5792 5791 5790 5789 5788 5788 5788 5787 5787 5786 5786 5785 5785 5784 5783 5783 5782 5782 5782 5781 5781 5780 5779
5806 5805 5804 5804 5803 5803 5803 5803 5802 5802 5801 5800 5799 5798 5797 5796 5794 5793 5792 5790 5789 5788 5787 5785 5785 5784 5784 5783 5783 5782 5781 5781 5780 5779 5779 5778 5778 5777 5777 5776 5775 5774 5773
5804 5803 5802 5802 5801 5801 5800 5800 5799 5799 5798 5797 5796 5795 5794 5792 5791 5789 5788 5787 5786 5785 5783 5782 5782 5781 5780 5780 5779 5778 5777 5776 5776 5775 5774 5774 5773 5772 5772 5771 5770 5768 5767
5803 5802 5801 5800 5799 5799 5798 5798 5797 5797 5796 5795 5793 5792 5791 5789 5788 5786 5785 5784 5783 5782 5780 5779 5779 5778 5777 5777 5776 5775 5774 5773 5772 5771 5770 5770 5769 5768 5767 5766 5764 5763 5761
5801 5800 5800 5799 5799 5798 5797 5796 5796 5795 5794 5792 5791 5789 5788 5786 5785 5784 5782 5781 5780 5779 5778 5777 5776 5775 5774 5773 5772 5771 5770 5769 5768 5767 5766 5765 5764 5763 5762 5760 5759 5757 5755
5800 5799 5799 5798 5798 5797 5796 5795 5794 5793 5791 5790 5788 5787 5785 5784 5782 5781 5780 5779 5777 5776 5775 5774 5773 5772 5771 5770 5769 5768 5766 5765 5764 5763 5762 5761 5760 5758 5757 5755 5753 5752 5750
5798 5798 5797 5797 5796 5795 5794 5793 5792 5790 5789 5788 5786 5785 5783 5782 5780 5779 5778 5776 5775 5774 5773 5772 5770 5769 5769 5767 5766 5764 5763 5761 5760 5759 5758 5756 5755 5753 5752 5750 5748 5746 5744
5797 5796 5796 5795 5794 5793 5792 5791 5789 5788 5787 5786 5784 5783 5781 5780 5779 5777 5776 5775 5773 5772 5770 5769 5768 5767 5766 5764 5763 5761 5759 5757 5756 5755 5753 5752 5751 5749 5747 5745 5743 5741 5738
5795 5794 5794 5793 5792 5791 5790 5789 5788 5786 5785 5783 5782 5781 5780 5778 5777 5775 5774 5773 5771 5770 5768 5766 5765 5764 5762 5761 5759 5757 5755 5753 5752 5750 5749 5747 5746 5744 5742 5740 5738 5735 5732
5793 5793 5792 5791 5790 5790 5788 5787 5786 5785 5783 5782 5780 5779 5778 5777 5775 5774 5772 5771 5769 5767 5765 5764 5762 5760 5758 5757 5755 5753 5751 5749 5748 5746 5744 5743 5741 5739 5737 5735 5733 5730 5727
5791 5791 5790 5790 5789 5788 5787 5786 5784 5783 5782 5780 5779 5778 5776 5775 5773 5772 5770 5768 5767 5765 5763 5761 5759 5757 5755 5753 5751 5750 5747 5745 5743 5741 5740 5738 5737 5735 5733 5730 5728 5725 5722
5789 5789 5788 5788 5787 5786 5785 5784 5783 5782 5780 5779 5777 5776 5774 5773 5771 5769 5768 5766 5764 5762 5760 5758 5756 5754 5752 5750 5748 5746 5744 5742 5740 5738 5736 5734 5732 5731 5728 5726 5723 5720 5717
5787 5787 5786 5785 5785 5784 5783 5782 5781 5780 5778 5777 5775 5774 5772 5770 5769 5767 5765 5763 5761 5759 5757 5755 5753 5751 5749 5747 5745 5742 5740 5738 5736 5734 5732 5730 5728 5726 5724 5721 5718 5715 5712
5784 5784 5784 5783 5783 5782 5781 5780 5779 5777 5776 5775 5773 5772 5770 5768 5766 5764 5762 5760 5758 5756 5754 5752 5750 5748 5746 5744 5742 5739 5737 5734 5732 5730 5728 5726 5724 5722 5719 5717 5714 5710 5707
5782 5781 5781 5781 5780 5779 5778 5778 5776 5775 5773 5772 5771 5769 5767 5765 5763 5761 5759 5757 5755 5753 5750 5748 5746 5744 5742 5740 5738 5736 5734 5731 5729 5727 5724 5722 5720 5718 5715 5712 5709 5706 5702
5778 5778 5778 5778 5777 5777 5776 5775 5774 5772 5771 5769 5768 5766 5764 5762 5760 5758 5756 5754 5751 5749 5747 5745 5743 5741 5739 5737 5735 5733 5730 5728 5726 5723 5721 5719 5716 5714 5711 5708 5705 5702 5699
5775 5775 5775 5774 5774 5774 5773 5772 5771 5770 5768 5767 5765 5763 5761 5760 5758 5756 5753 5751 5749 5746 5744 5742 5740 5738 5736 5733 5731 5729 5727 5724 5722 5720 5717 5715 5713 5710 5707 5704 5701 5698 5695
5771 5771 5771 5771 5771 5770 5770 5769 5768 5767 5765 5764 5762 5760 5759 5757 5755 5753 5750 5748 5746 5744 5742 5740 5737 5735 5732 5730 5727 5725 5723 5720 5718 5716 5714 5711 5708 5706 5703 5700 5697 5695 5692